TimeEST,TemperatureF,Dew PointF,Humidity,Sea Level PressureIn,VisibilityMPH,Wind Direction,Wind SpeedMPH,Gust SpeedMPH,PrecipitationIn,Events,Conditions,WindDirDegrees,DateUTC
12:15 AM,53.6,53.6,100,29.87,10.0,NE,4.6,-,N/A,,Overcast,50,2013-02-13 05:15:00
12:35 AM,53.6,53.6,100,29.83,10.0,ENE,5.8,-,N/A,,Overcast,70,2013-02-13 05:35:00
12:55 AM,53.6,53.6,100,29.83,10.0,East,5.8,-,N/A,Thunderstorm,Overcast,100,2013-02-13 05:55:00
1:15 AM,53.6,53.6,100,29.82,10.0,East,5.8,-,N/A,Thunderstorm,Overcast,100,2013-02-13 06:15:00
1:35 AM,53.6,53.6,100,29.84,10.0,NW,12.7,20.7,N/A,Thunderstorm,Overcast,310,2013-02-13 06:35:00
1:55 AM,53.6,53.6,100,29.82,10.0,NE,5.8,-,N/A,Rain-Thunderstorm,Rain,40,2013-02-13 06:55:00
2:15 AM,53.6,53.6,100,29.82,10.0,ENE,4.6,-,N/A,,Overcast,60,2013-02-13 07:15:00
2:35 AM,53.6,53.6,100,29.83,10.0,NE,3.5,-,N/A,,Overcast,50,2013-02-13 07:35:00
2:55 AM,53.6,53.6,100,29.82,5.0,Calm,Calm,-,N/A,,Overcast,0,2013-02-13 07:55:00
3:15 AM,53.6,53.6,100,29.81,5.0,Calm,Calm,-,N/A,,Overcast,0,2013-02-13 08:15:00
3:35 AM,53.6,53.6,100,29.80,4.0,Calm,Calm,-,N/A,Thunderstorm,Overcast,0,2013-02-13 08:35:00
3:55 AM,53.6,53.6,100,29.79,5.0,Calm,Calm,-,N/A,,Overcast,0,2013-02-13 08:55:00
4:15 AM,53.6,53.6,100,29.80,7.0,Calm,Calm,-,N/A,Thunderstorm,Overcast,0,2013-02-13 09:15:00
4:35 AM,53.6,53.6,100,29.81,7.0,Calm,Calm,-,N/A,,Overcast,0,2013-02-13 09:35:00
4:55 AM,53.6,53.6,100,29.79,7.0,ENE,3.5,-,N/A,,Overcast,70,2013-02-13 09:55:00
5:15 AM,53.6,53.6,100,29.78,5.0,East,3.5,-,N/A,Thunderstorm,Overcast,80,2013-02-13 10:15:00
5:35 AM,53.6,53.6,100,29.78,5.0,Calm,Calm,-,N/A,,Overcast,0,2013-02-13 10:35:00
5:55 AM,53.6,53.6,100,29.78,4.0,Calm,Calm,-,N/A,,Overcast,0,2013-02-13 10:55:00
6:15 AM,53.6,53.6,100,29.80,3.0,Calm,Calm,-,N/A,,Overcast,0,2013-02-13 11:15:00
6:35 AM,53.6,53.6,100,29.80,3.0,Calm,Calm,-,N/A,,Overcast,0,2013-02-13 11:35:00
6:55 AM,53.6,53.6,100,29.81,2.5,Calm,Calm,-,N/A,,Overcast,0,2013-02-13 11:55:00
7:15 AM,53.6,53.6,100,29.82,1.0,Calm,Calm,-,N/A,,Light Drizzle,0,2013-02-13 12:15:00
7:35 AM,53.6,53.6,100,29.82,1.0,Calm,Calm,-,N/A,,Overcast,0,2013-02-13 12:35:00
7:55 AM,53.6,53.6,100,29.82,1.2,Calm,Calm,-,N/A,,Overcast,0,2013-02-13 12:55:00
8:15 AM,53.6,53.6,100,29.82,0.8,South,3.5,-,N/A,,Overcast,170,2013-02-13 13:15:00
8:35 AM,53.6,53.6,100,29.81,0.8,South,4.6,-,N/A,,Overcast,190,2013-02-13 13:35:00
8:55 AM,55.4,55.4,100,29.83,0.8,SW,5.8,-,N/A,,Overcast,230,2013-02-13 13:55:00
9:15 AM,55.4,55.4,100,29.82,1.2,Calm,Calm,-,N/A,,Overcast,0,2013-02-13 14:15:00
9:35 AM,55.4,55.4,100,29.85,1.8,West,5.8,-,N/A,,Overcast,270,2013-02-13 14:35:00
9:55 AM,59.0,59.0,100,29.83,7.0,West,12.7,16.1,N/A,,Overcast,260,2013-02-13 14:55:00
10:15 AM,59.0,59.0,100,29.84,10.0,West,10.4,-,N/A,,Overcast,260,2013-02-13 15:15:00
10:35 AM,60.8,60.8,100,29.82,10.0,WSW,13.8,17.3,N/A,,Mostly Cloudy,250,2013-02-13 15:35:00
10:55 AM,60.8,59.0,94,29.82,10.0,WSW,10.4,17.3,N/A,,Scattered Clouds,250,2013-02-13 15:55:00
11:15 AM,60.8,59.0,94,29.83,10.0,WSW,12.7,19.6,N/A,,Mostly Cloudy,250,2013-02-13 16:15:00
11:35 AM,60.8,55.4,82,29.83,10.0,WSW,11.5,-,N/A,,Mostly Cloudy,240,2013-02-13 16:35:00
11:55 AM,62.6,55.4,77,29.83,10.0,WSW,8.1,-,N/A,,Scattered Clouds,250,2013-02-13 16:55:00
12:15 PM,62.6,53.6,72,29.82,10.0,WSW,11.5,18.4,N/A,,Scattered Clouds,250,2013-02-13 17:15:00
12:35 PM,62.6,50.0,63,29.82,10.0,West,13.8,21.9,N/A,,Mostly Cloudy,260,2013-02-13 17:35:00
12:55 PM,62.6,48.2,59,29.83,10.0,West,13.8,20.7,N/A,,Mostly Cloudy,270,2013-02-13 17:55:00
1:15 PM,62.6,44.6,52,29.82,10.0,West,18.4,26.5,N/A,,Scattered Clouds,270,2013-02-13 18:15:00
1:35 PM,62.6,44.6,52,29.83,10.0,WNW,16.1,24.2,N/A,,Clear,290,2013-02-13 18:35:00
1:55 PM,62.6,42.8,48,29.82,10.0,West,18.4,24.2,N/A,,Clear,280,2013-02-13 18:55:00
2:15 PM,60.8,41.0,48,29.82,10.0,West,15.0,24.2,N/A,,Scattered Clouds,270,2013-02-13 19:15:00
2:35 PM,60.8,41.0,48,29.81,10.0,West,18.4,25.3,N/A,,Scattered Clouds,270,2013-02-13 19:35:00
2:55 PM,60.8,41.0,48,29.82,10.0,West,15.0,20.7,N/A,,Scattered Clouds,270,2013-02-13 19:55:00
3:15 PM,60.8,41.0,48,29.82,10.0,West,13.8,18.4,N/A,,Mostly Cloudy,280,2013-02-13 20:15:00
3:35 PM,59.0,42.8,55,29.83,10.0,West,10.4,16.1,N/A,,Overcast,280,2013-02-13 20:35:00
3:55 PM,59.0,44.6,59,29.81,10.0,West,17.3,24.2,N/A,Rain,Light Rain,270,2013-02-13 20:55:00
4:15 PM,59.0,44.6,59,29.82,10.0,West,8.1,18.4,N/A,,Overcast,260,2013-02-13 21:15:00
4:35 PM,55.4,46.4,72,29.84,10.0,WNW,11.5,21.9,N/A,,Drizzle,300,2013-02-13 21:35:00
4:55 PM,53.6,53.6,100,29.88,10.0,WNW,15.0,24.2,N/A,,Drizzle,290,2013-02-13 21:55:00
5:15 PM,51.8,51.8,100,29.87,10.0,West,10.4,19.6,N/A,Rain,Light Rain,280,2013-02-13 22:15:00
5:35 PM,51.8,51.8,100,29.88,10.0,West,11.5,16.1,N/A,Rain,Light Rain,270,2013-02-13 22:35:00
5:55 PM,51.8,51.8,100,29.86,10.0,West,9.2,17.3,N/A,Rain,Light Rain,260,2013-02-13 22:55:00
6:15 PM,51.8,51.8,100,29.90,10.0,West,12.7,-,N/A,Rain,Light Rain,280,2013-02-13 23:15:00
6:35 PM,50.0,50.0,100,29.89,10.0,West,8.1,-,N/A,,Mostly Cloudy,270,2013-02-13 23:35:00
6:55 PM,50.0,50.0,100,29.89,10.0,WSW,6.9,-,N/A,,Mostly Cloudy,240,2013-02-13 23:55:00
7:15 PM,50.0,50.0,100,29.90,10.0,West,8.1,-,N/A,,Scattered Clouds,270,2013-02-14 00:15:00
7:35 PM,50.0,50.0,100,29.93,10.0,WSW,5.8,-,N/A,,Clear,250,2013-02-14 00:35:00
7:55 PM,50.0,50.0,100,29.91,10.0,West,5.8,-,N/A,,Clear,280,2013-02-14 00:55:00
8:15 PM,50.0,50.0,100,29.92,10.0,West,4.6,-,N/A,,Clear,270,2013-02-14 01:15:00
8:35 PM,50.0,50.0,100,29.93,10.0,West,5.8,-,N/A,,Clear,260,2013-02-14 01:35:00
8:55 PM,50.0,50.0,100,29.94,10.0,WNW,4.6,-,N/A,,Clear,290,2013-02-14 01:55:00
9:15 PM,50.0,50.0,100,29.94,10.0,West,5.8,-,N/A,,Scattered Clouds,280,2013-02-14 02:15:00
9:35 PM,50.0,50.0,100,29.96,10.0,West,4.6,-,N/A,,Scattered Clouds,270,2013-02-14 02:35:00
9:55 PM,50.0,50.0,100,29.96,10.0,WSW,4.6,-,N/A,,Clear,250,2013-02-14 02:55:00
10:55 PM,48.2,48.2,100,29.97,10.0,West,4.6,-,N/A,,Clear,260,2013-02-14 03:55:00
11:15 PM,48.2,48.2,100,29.95,10.0,WNW,3.5,-,N/A,,Clear,300,2013-02-14 04:15:00
11:35 PM,48.2,48.2,100,29.96,10.0,West,6.9,-,N/A,,Clear,270,2013-02-14 04:35:00
11:55 PM,46.4,46.4,100,29.96,10.0,WNW,4.6,-,N/A,,Clear,290,2013-02-14 04:55:00